Hourly Data Report for September 23, 2017

All times are specified in Local Standard Time (LST). Add 1 hour to adjust for Daylight Saving Time where and when it is observed.

SUSSEX FOUR CORNERS
NEW BRUNSWICK

45°44'30.048" N
65°31'44.039" W
47.00 m
8105210
71656
ASF

Download Data

Hourly Data (September 2017)
Hourly Data Report for September 23, 2017
Temp Definition
°C
Dew Point Temp Definition
°C
Rel Hum Definition
%
Wind Dir Definition
10's deg

Wind Spd Definition
km/h
Visibility Definition
km
Stn Press Definition
kPa
Hmdx Definition


Wind Chill Definition


Weather Definition


TIME
00:00 7.3 6.6 95 2 5   101.22     LegendNANA
01:00 6.7 6.4 98 35 3   101.22     LegendNANA
02:00 6.7 6.4 98 0 1   101.14     LegendNANA
03:00 6.1 5.8 98   0   101.12     LegendNANA
04:00 5.2 4.9 98 32 2   101.02     LegendNANA
05:00 5.1 4.9 99 21 4   100.98     LegendNANA
06:00 5.0 4.8 99 22 3   100.98     LegendNANA
07:00 6.4 6.3 99 29 6   100.97     LegendNANA
08:00 9.5 8.4 93 0 1   100.96     LegendNANA
09:00 14.9 11.1 78 20 3   100.95     LegendNANA
10:00 19.4 12.7 65 21 16   100.92     LegendNANA
11:00 22.2 13.2 57 21 12   100.91 25   LegendNANA
12:00 24.5 9.9 40 23 12   100.88 26   LegendNANA
13:00 25.5 11.5 42 23 17   100.78 28   LegendNANA
14:00 26.9 12.5 41 23 13   100.73 29   LegendNANA
15:00 27.1 11.8 39 23 14   100.64 29   LegendNANA
16:00 27.3 10.8 36 24 13   100.63 29   LegendNANA
17:00 25.3 14.2 50 22 12   100.65 29   LegendNANA
18:00 22.2 16.2 69 23 13   100.69 27   LegendNANA
19:00 20.9 16.3 75 24 16   100.78 26   LegendNANA
20:00 18.8 15.3 80 23 7   100.84     LegendNANA
21:00 17.7 15.2 85 24 9   100.87     LegendNANA
22:00 16.5 14.7 90 31 4   100.96     LegendNANA
23:00 17.3 12.9 75 5 11   100.98     LegendNANA

Notes on Data Quality.

Legend

  • E = Estimated
  • M = Missing
  • NA = Not Available
  • ‡ = Partner data that is not subject to review by the National Climate Archives
Date modified: